TimeMDT,TemperatureF,Dew PointF,Humidity,Sea Level PressureIn,VisibilityMPH,Wind Direction,Wind SpeedMPH,Gust SpeedMPH,PrecipitationIn,Events,Conditions,WindDirDegrees,DateUTC
12:53 AM,64.0,44.1,48,30.01,10.0,NE,11.5,-,N/A,,Clear,40,2013-07-27 06:53:00
1:53 AM,63.0,43.0,48,30.00,10.0,NNE,9.2,-,N/A,,Clear,30,2013-07-27 07:53:00
2:53 AM,62.1,44.1,52,29.99,10.0,NNE,10.4,-,0.00,Rain,Light Rain,20,2013-07-27 08:53:00
3:10 AM,62.1,44.1,52,30.07,10.0,NNE,6.9,-,0.00,Rain-Thunderstorm,Light Thunderstorms and Rain,20,2013-07-27 09:10:00
3:40 AM,60.1,46.9,62,30.06,10.0,ENE,9.2,-,0.01,,Mostly Cloudy,70,2013-07-27 09:40:00
3:53 AM,61.0,46.0,58,29.97,10.0,ENE,5.8,-,0.01,Thunderstorm,Thunderstorm,60,2013-07-27 09:53:00
4:11 AM,60.1,46.0,60,30.08,10.0,NNW,10.4,-,0.00,,Mostly Cloudy,340,2013-07-27 10:11:00
4:53 AM,61.0,46.0,58,29.99,10.0,North,8.1,-,0.00,,Scattered Clouds,360,2013-07-27 10:53:00
5:53 AM,59.0,46.0,62,29.99,10.0,NNW,6.9,-,N/A,,Scattered Clouds,330,2013-07-27 11:53:00
6:53 AM,60.1,45.0,57,29.98,10.0,North,5.8,-,N/A,,Partly Cloudy,10,2013-07-27 12:53:00
7:53 AM,61.0,46.0,58,29.98,10.0,Calm,Calm,-,N/A,,Partly Cloudy,0,2013-07-27 13:53:00
8:53 AM,64.0,48.0,56,29.98,10.0,Calm,Calm,-,N/A,,Clear,0,2013-07-27 14:53:00
9:53 AM,66.9,48.9,52,29.96,10.0,Variable,3.5,-,N/A,,Clear,0,2013-07-27 15:53:00
10:53 AM,70.0,48.0,46,29.94,10.0,SSE,3.5,-,N/A,,Clear,150,2013-07-27 16:53:00
11:53 AM,75.0,50.0,41,29.91,10.0,Variable,5.8,-,N/A,,Partly Cloudy,0,2013-07-27 17:53:00
12:53 PM,79.0,51.1,38,29.88,10.0,SSE,6.9,-,N/A,,Partly Cloudy,150,2013-07-27 18:53:00
1:53 PM,82.0,50.0,33,29.85,10.0,Variable,3.5,-,N/A,,Partly Cloudy,0,2013-07-27 19:53:00
2:53 PM,86.0,48.9,28,29.83,10.0,Variable,6.9,-,N/A,,Partly Cloudy,0,2013-07-27 20:53:00
3:53 PM,89.1,41.0,19,29.80,10.0,East,9.2,-,N/A,,Partly Cloudy,90,2013-07-27 21:53:00
4:13 PM,87.1,43.0,21,29.90,10.0,East,8.1,-,N/A,Thunderstorm,Thunderstorm,100,2013-07-27 22:13:00
4:42 PM,79.0,46.9,32,29.92,10.0,West,23.0,46.0,N/A,Thunderstorm,Thunderstorm,270,2013-07-27 22:42:00
4:53 PM,80.1,46.0,30,29.82,10.0,West,24.2,29.9,N/A,,Scattered Clouds,260,2013-07-27 22:53:00
5:53 PM,87.1,39.9,19,29.78,10.0,SSW,8.1,-,0.00,,Scattered Clouds,210,2013-07-27 23:53:00
6:53 PM,84.0,42.1,23,29.78,10.0,WSW,6.9,-,N/A,,Scattered Clouds,240,2013-07-28 00:53:00
7:53 PM,77.0,51.1,40,29.79,10.0,North,8.1,-,N/A,Rain,Light Rain,360,2013-07-28 01:53:00
8:53 PM,80.1,46.9,31,29.79,10.0,South,8.1,-,N/A,,Mostly Cloudy,190,2013-07-28 02:53:00
9:53 PM,77.0,48.0,36,29.79,10.0,West,3.5,-,N/A,,Scattered Clouds,260,2013-07-28 03:53:00
10:53 PM,77.0,46.9,34,29.78,10.0,Calm,Calm,-,N/A,,Scattered Clouds,0,2013-07-28 04:53:00
11:53 PM,75.9,46.9,36,29.79,10.0,WSW,8.1,-,N/A,,Scattered Clouds,240,2013-07-28 05:53:00